Apalachicola, FL

11:27 PM EDT on April 21, 2018 (GMT -0400)
Apalachicola Municipal

Weather History for KAAF - February, 2013

Change the Weather History Date:

Monday, February 25, 2013

  Actual Average Record
Temperature  
Mean Temperature 64 °F 57 °F  
Max Temperature 67 °F 68 °F 82 °F (2017)
Min Temperature 61 °F 46 °F 28 °F (1989)
Degree Days  
Heating Degree Days 1    
Month to date heating degree days 200  
Since 1 July heating degree days 821  
Cooling Degree Days 0    
Month to date cooling degree days 18  
Year to date cooling degree days 55  
Growing Degree Days 13 (Base 50)    
Moisture  
Dew Point 62 °F    
Average Humidity 94    
Maximum Humidity 100    
Minimum Humidity 87    
Precipitation  
Precipitation 5.37 in 0.16 in 5.37 in (2013)
Month to date precipitation 9.01 3.68  
Year to date precipitation 9.81 8.08  
Sea Level Pressure  
Sea Level Pressure 29.79 in    
Wind  
Wind Speed 11 mph (East)    
Max Wind Speed 33 mph    
Max Gust Speed 43 mph    
Visibility 4 miles    
Events Fog , Rain , Thunderstorm    
T = Trace of Precipitation, MM = Missing Value Source: NWS Daily Summary

Daily Weather History Graph

Daily Weather History Graph

Search for Another Location

Airport or City:

Astronomy

Feb. 25, 2013 Rise Set
Actual Time 7:09 AM EST 6:36 PM EST
Civil Twilight 6:45 AM EST 7:00 PM EST
Nautical Twilight 6:18 AM EST 7:28 PM EST
Astronomical Twilight 5:50 AM EST 7:56 PM EST
Moon 6:44 PM EST (2/25) 6:42 AM EST (2/25)
Length of Visible Light 12h 15m
Length of Day
11h 27m
Full, 100% of the Moon is Illuminated
Feb 25
Full
Feb 25
Full
Mar 4
Last Quarter
Mar 11
New
Mar 19
First Quarter

Hourly Weather History & Observations

Time (EST) Temp. Dew Point Humidity Pressure Visibility Wind Dir Wind Speed Gust Speed Precip Events Conditions
12:02 AM 62.6 °F 60.8 °F 94% 29.88 in 3.0 mi East 9.2 mph - 0.08 in Rain Heavy Rain
12:19 AM 64.4 °F 62.6 °F 94% 29.87 in 5.0 mi ESE 13.8 mph 17.3 mph 0.11 in Rain , Thunderstorm Heavy Rain
12:41 AM 64.4 °F 62.6 °F 94% 29.84 in 8.0 mi East 9.2 mph - 0.21 in Rain Light Rain
12:53 AM 64.0 °F 62.1 °F 93% 29.85 in 10.0 mi ESE 9.2 mph - 0.21 in Rain Light Rain
1:17 AM 64.4 °F 62.6 °F 94% 29.86 in 5.0 mi ESE 6.9 mph - 0.03 in Rain , Thunderstorm Thunderstorms and Rain
1:53 AM 64.9 °F 63.0 °F 93% 29.85 in 3.0 mi SE 6.9 mph - 0.13 in Rain , Thunderstorm Thunderstorms and Rain
1:59 AM 64.4 °F 62.6 °F 94% 29.84 in 1.8 mi East 8.1 mph - 0.14 in Rain , Thunderstorm Heavy Thunderstorms and Rain
2:11 AM 66.2 °F 64.4 °F 94% 29.85 in 2.5 mi ENE 6.9 mph - 0.30 in Rain , Thunderstorm Thunderstorms and Rain
2:14 AM 66.2 °F 64.4 °F 94% 29.84 in 1.8 mi East 8.1 mph - 0.35 in Rain , Thunderstorm Heavy Thunderstorms and Rain
2:37 AM 66.2 °F 64.4 °F 94% 29.83 in 2.0 mi ESE 11.5 mph - 1.33 in Rain , Thunderstorm Light Thunderstorms and Rain
2:45 AM 66.2 °F 64.4 °F 94% 29.82 in 10.0 mi East 9.2 mph - 1.34 in Rain , Thunderstorm Light Thunderstorms and Rain
2:53 AM 66.9 °F 64.0 °F 90% 29.82 in 10.0 mi ESE 8.1 mph - 1.34 in Rain , Thunderstorm Light Rain
3:00 AM 66.2 °F 64.4 °F 94% 29.81 in 6.0 mi ESE 8.1 mph - 0.01 in Rain Rain
3:15 AM 66.2 °F 64.4 °F 94% 29.81 in 9.0 mi ESE 8.1 mph 16.1 mph 0.02 in Rain Light Rain
3:53 AM 66.0 °F 64.0 °F 93% 29.80 in 4.0 mi East 12.7 mph 18.4 mph 0.03 in   Overcast
4:05 AM 66.2 °F 64.4 °F 94% 29.79 in 2.5 mi East 8.1 mph 18.4 mph N/A   Overcast
4:22 AM 66.2 °F 64.4 °F 94% 29.79 in 3.0 mi East 11.5 mph 18.4 mph 0.00 in Rain Light Rain
4:53 AM 64.9 °F 63.0 °F 93% 29.79 in 4.0 mi East 11.5 mph - 0.00 in   Overcast
5:02 AM 64.4 °F 62.6 °F 94% 29.79 in 1.8 mi East 12.7 mph - N/A   Overcast
5:25 AM 64.4 °F 62.6 °F 94% 29.79 in 0.8 mi East 11.5 mph - N/A   Mist
5:53 AM 64.9 °F 63.0 °F 93% 29.80 in 0.5 mi ESE 10.4 mph - N/A Fog Fog
6:21 AM 64.4 °F 64.4 °F 100% 29.81 in 0.2 mi East 4.6 mph - N/A Fog Fog
6:44 AM 64.4 °F 62.6 °F 94% 29.80 in 0.2 mi ESE 4.6 mph - 0.00 in Fog Fog
6:53 AM 64.9 °F 63.0 °F 93% 29.81 in 0.2 mi ENE 4.6 mph - 0.00 in Fog Fog
7:05 AM 64.4 °F 62.6 °F 94% 29.82 in 0.2 mi ENE 5.8 mph - N/A Fog Fog
7:17 AM 62.6 °F 62.6 °F 100% 29.83 in 1.0 mi Variable 3.5 mph - N/A   Mist
7:33 AM 64.4 °F 62.6 °F 94% 29.82 in 0.5 mi East 4.6 mph - N/A Fog Fog
7:53 AM 64.0 °F 62.1 °F 93% 29.83 in 0.5 mi NE 9.2 mph - N/A Fog Fog
8:04 AM 62.6 °F 60.8 °F 94% 29.83 in 1.2 mi NE 5.8 mph - N/A   Overcast
8:53 AM 61.0 °F 60.1 °F 97% 29.81 in 1.2 mi ENE 8.1 mph - N/A   Overcast
9:53 AM 62.1 °F 61.0 °F 96% 29.82 in 1.0 mi East 8.1 mph - N/A   Overcast
10:06 AM 62.6 °F 62.6 °F 100% 29.82 in 0.8 mi East 8.1 mph - N/A   Overcast
10:53 AM 64.9 °F 63.0 °F 93% 29.80 in 1.5 mi ESE 9.2 mph 20.7 mph N/A   Overcast
11:02 AM 64.4 °F 62.6 °F 94% 29.80 in 2.5 mi ESE 9.2 mph 18.4 mph N/A   Overcast
11:21 AM 66.2 °F 64.4 °F 94% 29.79 in 4.0 mi SE 10.4 mph 19.6 mph N/A   Overcast
11:53 AM 66.9 °F 64.9 °F 93% 29.79 in 4.0 mi SE 10.4 mph - N/A Thunderstorm Overcast
12:39 PM 62.6 °F 60.8 °F 94% 29.77 in 1.8 mi East 26.5 mph 35.7 mph 0.15 in Rain , Thunderstorm Heavy Thunderstorms and Rain
12:43 PM 62.6 °F 60.8 °F 94% 29.76 in 1.2 mi East 21.9 mph 35.7 mph 0.24 in Rain , Thunderstorm Heavy Thunderstorms and Rain
12:53 PM 62.1 °F 60.1 °F 93% 29.77 in 0.2 mi NE 27.6 mph 42.6 mph 0.77 in Fog , Rain , Thunderstorm Heavy Thunderstorms and Rain
1:03 PM 62.6 °F 60.8 °F 94% 29.78 in 0.2 mi NE 17.3 mph 29.9 mph 0.81 in Fog , Rain , Thunderstorm Heavy Thunderstorms and Rain
1:14 PM 62.6 °F 60.8 °F 94% 29.77 in 1.0 mi NE 15.0 mph - 1.29 in Rain , Thunderstorm Heavy Thunderstorms and Rain
1:21 PM 62.6 °F 60.8 °F 94% 29.79 in 1.0 mi East 10.4 mph - 1.36 in Rain , Thunderstorm Heavy Thunderstorms and Rain
1:29 PM 62.6 °F 60.8 °F 94% 29.77 in 2.0 mi ENE 11.5 mph - 1.43 in Rain , Thunderstorm Rain
1:48 PM 62.6 °F 60.8 °F 94% 29.79 in 1.2 mi NE 11.5 mph - 1.57 in Rain , Thunderstorm Heavy Thunderstorms and Rain
1:53 PM 62.1 °F 59.0 °F 90% 29.79 in 1.5 mi NE 9.2 mph - 1.63 in Rain , Thunderstorm Heavy Rain
1:58 PM 62.6 °F 60.8 °F 94% 29.79 in 2.0 mi NE 6.9 mph - 0.03 in Rain Heavy Rain
2:05 PM 62.6 °F 60.8 °F 94% 29.78 in 2.5 mi NE 11.5 mph - 0.07 in Rain , Thunderstorm Heavy Rain
2:16 PM 62.6 °F 60.8 °F 94% 29.79 in 4.0 mi East 8.1 mph - 0.11 in Rain Rain
2:28 PM 62.6 °F 59.0 °F 88% 29.80 in 1.8 mi East 5.8 mph - 0.19 in Rain Heavy Rain
2:37 PM 62.6 °F 60.8 °F 94% 29.81 in 3.0 mi NE 4.6 mph - 0.24 in Rain Heavy Rain
2:46 PM 62.6 °F 60.8 °F 94% 29.79 in 5.0 mi ENE 10.4 mph - 0.26 in Rain Light Rain
2:53 PM 62.1 °F 60.1 °F 93% 29.78 in 4.0 mi NE 11.5 mph - 0.27 in Rain Rain
3:05 PM 62.6 °F 60.8 °F 94% 29.78 in 10.0 mi ENE 12.7 mph - 0.01 in Rain Light Rain
3:18 PM 62.6 °F 60.8 °F 94% 29.77 in 10.0 mi ENE 12.7 mph - 0.01 in Rain Light Rain
3:40 PM 62.6 °F 60.8 °F 94% 29.77 in 10.0 mi ENE 10.4 mph - 0.01 in Rain Light Rain
3:53 PM 62.1 °F 60.1 °F 93% 29.77 in 10.0 mi East 11.5 mph - 0.01 in   Overcast
4:53 PM 61.0 °F 59.0 °F 93% 29.75 in 10.0 mi East 13.8 mph 20.7 mph 0.00 in   Overcast
5:21 PM 60.8 °F 59.0 °F 94% 29.73 in 7.0 mi ESE 17.3 mph 28.8 mph 0.01 in Rain Light Rain
5:53 PM 61.0 °F 59.0 °F 93% 29.73 in 10.0 mi East 17.3 mph 25.3 mph 0.01 in Rain Light Rain
6:53 PM 63.0 °F 61.0 °F 93% 29.73 in 6.0 mi East 15.0 mph 21.9 mph 0.05 in Rain Light Rain
7:01 PM 62.6 °F 60.8 °F 94% 29.73 in 6.0 mi ESE 11.5 mph 20.7 mph 0.01 in Rain Light Rain
7:53 PM 63.0 °F 61.0 °F 93% 29.72 in 4.0 mi East 11.5 mph 18.4 mph 0.05 in Rain , Thunderstorm Rain
8:11 PM 62.6 °F 60.8 °F 94% 29.72 in 2.5 mi East 11.5 mph 20.7 mph 0.05 in Rain Heavy Rain
8:29 PM 64.4 °F 60.8 °F 88% 29.72 in 4.0 mi ESE 11.5 mph 23.0 mph 0.18 in Rain Rain
8:38 PM 64.4 °F 62.6 °F 94% 29.72 in 1.8 mi ESE 15.0 mph 25.3 mph 0.28 in Rain , Thunderstorm Heavy Rain
8:53 PM 63.0 °F 61.0 °F 93% 29.72 in 2.0 mi East 15.0 mph 25.3 mph 0.60 in Rain , Thunderstorm Heavy Rain
8:59 PM 62.6 °F 60.8 °F 94% 29.74 in 2.5 mi Variable 6.9 mph 23.0 mph 0.07 in Rain Heavy Rain
9:02 PM 62.6 °F 62.6 °F 100% 29.74 in 3.0 mi East 5.8 mph 23.0 mph 0.11 in Rain Heavy Rain
9:23 PM 64.4 °F 62.6 °F 94% 29.73 in 10.0 mi East 15.0 mph 25.3 mph 0.15 in Rain Light Rain
9:53 PM 64.0 °F 62.1 °F 93% 29.75 in 9.0 mi West 6.9 mph - 0.15 in Rain Light Rain
10:02 PM 64.4 °F 62.6 °F 94% 29.74 in 10.0 mi NNE 8.1 mph - 0.01 in Rain Light Rain
10:53 PM 64.0 °F 62.1 °F 93% 29.70 in 4.0 mi SE 11.5 mph - 0.11 in Rain Light Rain
11:14 PM 64.4 °F 62.6 °F 94% 29.69 in 2.0 mi SE 13.8 mph - 0.02 in Rain Light Rain
11:35 PM 64.4 °F 62.6 °F 94% 29.68 in 1.8 mi SE 16.1 mph 25.3 mph 0.05 in Rain Light Rain
11:53 PM 66.0 °F 64.0 °F 93% 29.70 in 1.0 mi SE 13.8 mph 21.9 mph 0.06 in   Overcast